Regional Weather Roundup
Issued by NWS

Home | Current Version | Previous Version | Graphics & Text | Print | Product List | Glossary On
Versions: 1 2 3 4 5 6 7 8 9 10 11 12 13 14 15 16 17 18 19 20 21 22 23 24 25 26 27 28 29 30 31 32 33 34 35 36 37 38 39 40 41 42 43 44 45 46 47 48 49 50
000
ASUS43 KDTX 251710
RWRMI
MICHIGAN HOURLY REGIONAL WEATHER ROUNDUP
NATIONAL WEATHER SERVICE DETROIT/PONTIAC MI
100 PM EDT SAT OCT 25 2014

NOTE: "FAIR" INDICATES FEW OR NO CLOUDS BELOW 12,000 FEET WITH NO
SIGNIFICANT WEATHER AND/OR OBSTRUCTION TO VISIBILITY.

MIZ047>049-052>055-059>063-066>070-074>076-081>083-251800-
SOUTHEAST LOWER MICHIGAN

CITY           SKY/WX    TMP DP  RH WIND       PRES   REMARKS
ADRIAN         MOSUNNY   63  53  70 NW17      29.85S
ALMA           SUNNY     64  46  52 W20G25    29.78F
ANN ARBOR      CLOUDY    62  51  67 W16       29.82S
BAD AXE        MOSUNNY   61  52  72 W15G26    29.72S
DETROIT CITY   CLOUDY    63  51  65 W12G24    29.79F
DETROIT        CLOUDY    62  52  69 W17G24    29.81S
FLINT          MOSUNNY   64  51  62 W14       29.77F
GROSSE ILE     PTSUNNY   63  54  72 W10       29.79F
HILLSDALE      CLOUDY    61  54  79 W16       29.86F
HOWELL         CLOUDY    59  52  79 W15G21    29.81F HAZE

CITY           SKY/WX    TMP DP  RH WIND       PRES   REMARKS
JACKSON        PTSUNNY   61  51  70 W13G22    29.83F
LAMBERTVILLE   PTSUNNY   64  54  68 W10G20    29.83F
LANSING        MOSUNNY   61  50  67 W15       29.81F
LAPEER         NOT AVBL
MASON          PTSUNNY   59  51  73 W18       29.82F
MONROE         MOSUNNY   64  54  68 W16G22    29.80F
MT. CLEMENS    CLOUDY    61  53  75 W13       29.75F
PONTIAC        CLOUDY    58  50  75 W17       29.79S
PORT HOPE        N/A     61  48  62 W10G23    29.67F
PORT HURON     PTSUNNY   59  52  77 W8        29.76F
TRI CITIES     LGT RAIN  65  47  52 W18       29.76S
YPSILANTI      CLOUDY    65  51  60 W17G26    29.82S HAZE
$$
MIZ043>046-050>051-056>058-064>065-071>073-077>080-251800-
SOUTHWEST LOWER MICHIGAN

CITY           SKY/WX    TMP DP  RH WIND       PRES   REMARKS
BATTLE CREEK   MOSUNNY   64  51  62 W16       29.87F
BENTON HARBOR  MOSUNNY   60  52  74 W12G18    29.92R
BIG RAPIDS     SUNNY     64  42  45 W20G28    29.78F
COLDWATER      CLOUDY    63  54  74 W16G22    29.88S
HOLLAND        SUNNY     63  49  60 W13G24    29.88F
GRAND RAPIDS   MOSUNNY   65  49  56 W16G28    29.83F
KALAMAZOO      MOSUNNY   64  51  62 NW18      29.88S
MARSHALL       PTSUNNY   63  52  68 W17G23    29.85F
MUSKEGON       SUNNY     62  47  57 W18G25    29.86S
$$
MIZ016>042-251800-
NORTHERN LOWER MICHIGAN

CITY           SKY/WX    TMP DP  RH WIND       PRES   REMARKS
ALPENA         MOSUNNY   63  38  39 NW17G29   29.63F
BEAVER ISLAND  MOSUNNY   60  42  52 W12G17    29.70S
BELLAIRE       SUNNY     60  37  43 W15G22    29.74S
CADILLAC       SUNNY     61  39  43 NW20G28   29.75F
CHARLEVOIX     SUNNY     58  45  62 W21G26    29.75S
FRANKFORT      SUNNY     60  43  52 W13G21    29.79R
GAYLORD        SUNNY     57  36  45 W15G29    29.70S
GRAYLING       SUNNY     60  37  41 W21G30    29.72S
HARBOR SPRINGS SUNNY     59  43  55 W14G22    29.70S
HOUGHTON LAKE  SUNNY     61  39  44 W14G24    29.72F
MANISTEE       SUNNY     57  45  62 W17       29.81F
OSCODA         MOSUNNY   65  42  43 W13G20    29.66F
PELLSTON       MOSUNNY   58  39  49 W23G31    29.68S
TRAVERSE CITY  MOSUNNY   61  37  41 W18G29    29.74S
$$
MIZ007>008-015-251800-
EASTERN UPPER MICHIGAN

CITY           SKY/WX    TMP DP  RH WIND       PRES   REMARKS
KINROSS        CLOUDY    55  37  50 NW18G35   29.63R
MACKINAC ISLAN CLOUDY    56  40  56 W20G28    29.65S
NEWBERRY       CLOUDY    54  38  54 W17G26    29.67R
S. S. MARIE    MOSUNNY   55  37  50 NW23G38   29.61S
$$
MIZ004>006-011>014-085-251800-
CENTRAL UPPER MICHIGAN

CITY           SKY/WX    TMP DP  RH WIND       PRES   REMARKS
MANISTIQUE     SUNNY     59  37  43 NW13G23   29.69S
ESCANABA       SUNNY     61  34  36 NW21G29   29.71S
MENOMINEE      SUNNY     61  32  33 NW9G22    29.77F
SAWYER-GWINN   SUNNY     54  36  50 W21G30    29.72R
$$
MIZ001>003-009>011-084-251800-
WESTERN UPPER MICHIGAN

CITY           SKY/WX    TMP DP  RH WIND       PRES   REMARKS
IRON MOUNTAIN  SUNNY     58  30  34 NW23G35   29.76S
HOUGHTON       SUNNY     51  35  54 W25G46    29.73R
COPPER HARBOR    N/A     53  35  50 NW20G39   29.66F
IRONWOOD       SUNNY     52  32  46 W25G32    29.84F
$$

ABBREVIATIONS USED IN REMARKS
   TC - TEMPERATURE IN CELSIUS
  WCI - WIND CHILL INDEX
   HX - HEAT INDEX
  VSB - VISIBILITY




USA.gov is the U.S. government's official web portal to all federal, state and local government web resources and services.